Tracking 28126 objects as of 2-Oct-2023
HD Live streaming from Space Station
objects crossing your sky now

STARLINK-3967

Track STARLINK-3967 now!
10-day predictions
STARLINK-3967 is classified as:


NORAD ID: 52636
Int'l Code: 2022-052AQ
Perigee: 545.7 km
Apogee: 548.1 km
Inclination: 53.2 °
Period: 95.4 minutes
Semi major axis: 6917 km
RCS: Unknown
Launch date: May 14, 2022
Source: United States (US)
Launch site: AIR FORCE EASTERN TEST RANGE (AFETR)
Your satellite tracking list
Your tracking list is empty




NASA's NSSDC Master Catalog

Two Line Element Set (TLE):
1 52636U 22052AQ  23275.10040431 -.00002577  00000-0 -14391-3 0  9999
2 52636  53.2171 302.6444 0001735  98.9708 261.1481 15.08833365 77079
Source of the keplerian elements: AFSPC